Regional Weather Roundup
Issued by NWS

Home | Current Version | Previous Version | Graphics & Text | Print | Product List | Glossary On
Versions: 1 2 3 4 5 6 7 8 9 10 11 12 13 14 15 16 17 18 19 20 21 22 23 24 25 26 27 28 29 30 31 32 33 34 35 36 37 38 39 40 41 42 43 44 45 46 47 48 49 50
000
ASUS43 KLSX 280907
RWRMO

WEATHER SUMMARY FOR MISSOURI
NATIONAL WEATHER SERVICE SPRINGFIELD MO
400 AM CDT THU MAY 28 2015

NOTE: "FAIR" INDICATES FEW OR NO CLOUDS BELOW 12,000 FEET WITH NO
       SIGNIFICANT WEATHER AND/OR OBSTRUCTIONS TO VISIBILITY.
       CURRENT SKY AND/OR WEATHER CONDITIONS ARE NOT AVAILABLE FOR
       CHILLICOTHE AND FARMINGTON.

MOZ001>031-035>038-043-044-053-054-281000-
...NORTHERN AND WESTERN MISSOURI...

CITY           SKY/WX    TMP DP  RH WIND       PRES   REMARKS
KANSAS CTY INT MOCLDY    66  56  70 SE9       30.07F
KANSAS C DTWN  MOCLDY    66  57  72 NE6       30.06F
LEE`S SUMMIT   PTCLDY    68  54  60 SE8       30.08F
ST JOSEPH      CLOUDY    65  56  72 E6        30.06F
CHILLICOTHE      N/A     63  58  83 CALM      30.11F
KIRKSVILLE     CLEAR     61  56  83 SE5       30.13F

$$
MOZ066>068-077>081-088>096-101>105-281000-
...SOUTHWEST MISSOURI...

CITY           SKY/WX    TMP DP  RH WIND       PRES   REMARKS
SPRINGFIELD    CLEAR     66  63  90 SE9       30.08F
JOPLIN         PTCLDY    65  63  93 S6        30.07F

$$
MOZ032>034-039>042-045>050-055>058-069>072-281000-
...CENTRAL MISSOURI...

CITY           SKY/WX    TMP DP  RH WIND       PRES   REMARKS
COLUMBIA       PTCLDY    62  57  83 E6        30.12F
JEFFERSON CITY PTCLDY    62  59  90 S3        30.10F
ROLLA          PTCLDY    63  58  83 E9        30.10F
SEDALIA        CLEAR     64  57  78 SE7       30.11F
WHITEMAN AFB   PTCLDY    63  56  78 SE5       30.08F
WARRENSBURG    CLEAR     64  55  72 E6        30.08F
OSAGE BEACH    CLEAR     63  57  82 E5        30.10S

$$
MOZ051-052-059>065-281000-
...EAST CENTRAL MISSOURI...

CITY           SKY/WX    TMP DP  RH WIND       PRES   REMARKS
ST LOUIS INTL  PTCLDY    64  56  75 E3        30.14F
SPIRIT OF STL  PTCLDY    59  58  96 CALM      30.12F
ST CHARLES     PTCLDY    60  58  92 NE3       30.13S

$$
MOZ072>076-082>087-097>100-106>115-281000-
...SOUTH CENTRAL AND SOUTHEAST MISSOURI...

CITY           SKY/WX    TMP DP  RH WIND       PRES   REMARKS
CAPE GIRARDEAU PTCLDY    66  65  96 CALM      30.13F
FARMINGTON     MOCLDY    63  61  94 CALM      30.17F
POPLAR BLUFF   PTCLDY    67  65  93 CALM      30.12F FOG
WEST PLAINS    FOG       67  66  97 SE5       30.13R VSB 1/4

$$



USA.gov is the U.S. government's official web portal to all federal, state and local government web resources and services.